Flag for Germany Weather past 2 weeks in Augsburg, Bavaria, Germany

Now
54 °F

Sunny.


Feels Like: 51 °F
Forecast: 43 / 58 °F
Wind: 8 mph from Northwest

Location: Augsburg Airport

Current Time: May 26, 2015 at 6:43:18 PM

Latest Report: May 26, 2015 at 6:20 PM


Visibility: 10 mi

Pressure: 30.07 "Hg

Humidity: 58%

Dew point: 39 °F

Location of AugsburgLocation

Historic Weather in Augsburg — Graph

°F

Augsburg temperature yesterday

Maximum temperature yesterday: 66 °F (at 1:20 PM)
Minimum temperature yesterday: 54 °F (at 8:50 AM)
Average temperature yesterday: 61 °F

Past Weeks' High & Low Weather Summary

 TemperatureHumidityPressure
High82 °F (May 12, 4:50 PM)100% (May 15, 6:50 AM)30.30 "Hg (May 15, 6:50 AM)
Low41 °F (May 22, 6:50 AM)23% (May 12, 2:50 PM)29.74 "Hg (May 18, 6:50 PM)
Average59 °F64%30.05 "Hg
* Reported May 11 5:20 PM — May 26 5:20 PM, Augsburg, Weather by CustomWeather, © 2015

Note: Actual official high and low records may vary slightly from our data, if they occured in-between our weather recording intervals... More about our weather records

Advertising

Augsburg weather history for previous 24 hours

 ConditionsComfort  
Time TempWeatherWind HumidityBarometerVisibility
5:20 PM
Tue, May 26
54 °FBroken clouds.9 mph58%30.07 "HgN/A
4:50 PM55 °FPartly sunny.15 mph55%30.07 "HgN/A
4:20 PM55 °FPartly sunny.15 mph51%30.07 "HgN/A
3:50 PM57 °FBroken clouds.16 mph51%30.04 "HgN/A
3:20 PM59 °FBroken clouds.14 mph55%30.04 "HgN/A
2:50 PM59 °FBroken clouds.13 mph51%30.04 "HgN/A
2:20 PM59 °FPartly sunny.9 mph55%30.04 "HgN/A
1:50 PM57 °FPartly sunny.9 mph51%30.04 "HgN/A
1:20 PM57 °FPartly sunny.10 mph51%30.04 "HgN/A
12:50 PM57 °FBroken clouds.9 mph55%30.04 "HgN/A
12:20 PM57 °FBroken clouds.10 mph51%30.04 "HgN/A
11:50 AM57 °FScattered clouds.10 mph55%30.01 "HgN/A
11:20 AM57 °FScattered clouds.10 mph63%30.01 "HgN/A
10:50 AM54 °FBroken clouds.13 mph72%30.01 "HgN/A
10:20 AM55 °FBroken clouds.13 mph67%30.01 "HgN/A
9:50 AM54 °FScattered clouds.12 mph77%30.01 "HgN/A
9:20 AM54 °FPartly sunny.10 mph88%29.98 "HgN/A
8:50 AM52 °FBroken clouds.9 mph100%29.98 "Hg6 mi
8:20 AM50 °FRain. Broken clouds.10 mph100%29.98 "Hg6 mi
7:50 AM52 °FRain showers. Broken clouds.10 mph100%29.98 "Hg4 mi
7:20 AM52 °FLight rain. Partly sunny.9 mph100%29.95 "Hg6 mi
6:50 AM52 °FBroken clouds.8 mph100%29.95 "Hg5 mi
6:20 AM52 °FPassing clouds.7 mph100%29.95 "HgN/A
8:50 PM
Mon, May 25
55 °FLight rain. Mostly cloudy.2 mph94%29.92 "HgN/A
8:20 PM55 °FLight rain. Broken clouds.3 mph88%29.92 "HgN/A
7:50 PM57 °FSunny.3 mph82%29.92 "Hg10 mi
7:20 PM57 °FSunny.5 mph77%29.92 "Hg10 mi
6:50 PM57 °FPassing clouds.6 mph72%29.92 "HgN/A
6:20 PM57 °FSunny.7 mph82%29.92 "Hg10 mi
Weather by CustomWeather, © 2015

See weather overviewHow to use our weather pages